| time (UTC) | temp F | wind direction | speed MPH | gust MPH | rain 1hr in | rain 24hr in | rain mn in | humidity % | barometer mb |
| 20260902092440 | 58 | 311 | 0.0 | 0.0 | 0.00 | 0.00 | 0.00 | 98 | 1016.3 |
| 20260902091939 | 58 | 270 | 1.0 | 1.0 | 0.00 | 0.00 | 0.00 | 98 | 1016.2 |
| 20260902085101 | 58 | 250 | 1.0 | 1.0 | 0.00 | 0.00 | 0.00 | 98 | 1016.4 |
| 20260902084557 | 58 | 250 | 1.0 | 1.0 | 0.00 | 0.00 | 0.00 | 98 | 1016.4 |
| 20260902084052 | 58 | 228 | 1.0 | 1.0 | 0.00 | 0.00 | 0.00 | 98 | 1016.5 |
| 20260902083419 | 58 | 314 | 0.0 | 0.0 | 0.00 | 0.00 | 0.00 | 97 | 1016.6 |
| 20260902082913 | 58 | 314 | 0.0 | 0.0 | 0.00 | 0.00 | 0.00 | 97 | 1016.6 |
| 20260902082409 | 58 | 314 | 0.0 | 0.0 | 0.00 | 0.00 | 0.00 | 97 | 1016.6 |
| 20260902081900 | 58 | 255 | 3.0 | 3.0 | 0.00 | 0.00 | 0.00 | 97 | 1016.6 |
| 20260902081355 | 58 | 255 | 3.0 | 3.0 | 0.00 | 0.00 | 0.00 | 97 | 1016.6 |
| 20260902080850 | 58 | 245 | 4.0 | 5.0 | 0.00 | 0.00 | 0.00 | 97 | 1016.5 |
| 20260902080346 | 58 | 310 | 1.0 | 2.0 | 0.00 | 0.00 | 0.00 | 97 | 1016.6 |
| 20260902074913 | 58 | 295 | 0.0 | 0.0 | 0.00 | 0.00 | 0.00 | 97 | 1016.5 |
| 20260902074408 | 58 | 295 | 0.0 | 0.0 | 0.00 | 0.00 | 0.00 | 97 | 1016.5 |
| 20260902073857 | 58 | 291 | 0.0 | 0.0 | 0.00 | 0.00 | 0.00 | 97 | 1016.6 |
| 20260902073354 | 58 | 271 | 0.0 | 1.0 | 0.00 | 0.00 | 0.00 | 97 | 1016.5 |
| 20260902072850 | 58 | 295 | 0.0 | 0.0 | 0.00 | 0.00 | 0.00 | 97 | 1016.6 |
| 20260902072345 | 58 | 345 | 0.0 | 0.0 | 0.00 | 0.00 | 0.00 | 97 | 1016.5 |
| 20260902071841 | 58 | 345 | 0.0 | 0.0 | 0.00 | 0.00 | 0.00 | 97 | 1016.5 |
| 20260902071254 | 58 | 302 | 0.0 | 0.0 | 0.00 | 0.00 | 0.00 | 98 | 1016.4 |
| 20260902070751 | 58 | 302 | 0.0 | 0.0 | 0.00 | 0.00 | 0.00 | 98 | 1016.4 |
| 20260902070250 | 58 | 302 | 0.0 | 0.0 | 0.00 | 0.00 | 0.00 | 98 | 1016.4 |
| 20260902065749 | 58 | 273 | 0.0 | 0.0 | 0.00 | 0.01 | 0.01 | 98 | 1016.5 |
| 20260902065244 | 58 | 276 | 1.0 | 1.0 | 0.00 | 0.01 | 0.01 | 98 | 1016.5 |
| 20260902064101 | 58 | 256 | 1.0 | 1.0 | 0.00 | 0.01 | 0.01 | 98 | 1016.4 |
| 20260902063556 | 58 | 256 | 1.0 | 1.0 | 0.00 | 0.01 | 0.01 | 98 | 1016.4 |
| 20260902063051 | 57 | 296 | 0.0 | 0.0 | 0.00 | 0.01 | 0.01 | 98 | 1016.3 |
| 20260902062550 | 57 | 330 | 0.0 | 0.0 | 0.00 | 0.01 | 0.01 | 98 | 1016.4 |
| 20260902062046 | 57 | 319 | 0.0 | 0.0 | 0.00 | 0.01 | 0.01 | 98 | 1016.1 |
| 20260902061544 | 57 | 319 | 0.0 | 0.0 | 0.00 | 0.01 | 0.01 | 98 | 1016.1 |
| 20260902061041 | 57 | 303 | 0.0 | 0.0 | 0.00 | 0.01 | 0.01 | 98 | 1016.3 |
| 20260902060219 | 57 | 298 | 0.0 | 0.0 | 0.00 | 0.01 | 0.01 | 98 | 1016.4 |
| 20260902055715 | 57 | 298 | 0.0 | 0.0 | 0.00 | 0.01 | 0.01 | 98 | 1016.4 |
| 20260902055211 | 56 | 286 | 0.0 | 1.0 | 0.00 | 0.01 | 0.01 | 98 | 1016.5 |
| 20260902054706 | 56 | 288 | 0.0 | 0.0 | 0.00 | 0.01 | 0.01 | 98 | 1016.5 |
| 20260902054202 | 56 | 287 | 0.0 | 0.0 | 0.00 | 0.01 | 0.01 | 98 | 1016.6 |
| 20260902053657 | 55 | 286 | 0.0 | 0.0 | 0.00 | 0.01 | 0.01 | 98 | 1016.6 |
| 20260902053156 | 55 | 292 | 0.0 | 0.0 | 0.00 | 0.01 | 0.01 | 97 | 1016.5 |
| 20260902052655 | 55 | 291 | 0.0 | 0.0 | 0.00 | 0.01 | 0.01 | 97 | 1016.5 |
| 20260902051825 | 57 | 290 | 0.0 | 0.0 | 0.00 | 0.01 | 0.01 | 95 | 1016.5 |
| 20260902051320 | 57 | 290 | 0.0 | 0.0 | 0.00 | 0.01 | 0.01 | 95 | 1016.5 |
| 20260902050814 | 57 | 308 | 0.0 | 0.0 | 0.00 | 0.01 | 0.01 | 95 | 1016.6 |
| 20260902050314 | 57 | 308 | 0.0 | 0.0 | 0.00 | 0.01 | 0.01 | 95 | 1016.6 |
| 20260902045809 | 57 | 307 | 0.0 | 0.0 | 0.00 | 0.01 | 0.01 | 94 | 1016.2 |
| 20260902045306 | 58 | 300 | 0.0 | 0.0 | 0.00 | 0.01 | 0.01 | 94 | 1016.2 |
| 20260902044801 | 58 | 298 | 1.0 | 1.0 | 0.00 | 0.01 | 0.01 | 94 | 1016.4 |
| 20260902044256 | 58 | 292 | 0.0 | 0.0 | 0.00 | 0.01 | 0.01 | 94 | 1016.5 |
| 20260902043750 | 58 | 292 | 0.0 | 0.0 | 0.00 | 0.01 | 0.01 | 94 | 1016.5 |
| 20260902043246 | 58 | 230 | 2.0 | 3.0 | 0.00 | 0.01 | 0.01 | 95 | 1016.5 |
| 20260902041903 | 58 | 285 | 0.0 | 0.0 | 0.00 | 0.01 | 0.01 | 94 | 1016.4 |
| 20260902041357 | 58 | 285 | 0.0 | 0.0 | 0.00 | 0.01 | 0.01 | 94 | 1016.4 |
| 20260902040855 | 58 | 285 | 0.0 | 0.0 | 0.00 | 0.01 | 0.01 | 94 | 1016.4 |
| 20260902034346 | 59 | 288 | 0.0 | 1.0 | 0.00 | 0.01 | 0.01 | 93 | 1016.0 |
| 20260902033844 | 59 | 288 | 0.0 | 1.0 | 0.00 | 0.01 | 0.01 | 93 | 1016.0 |
| 20260902033339 | 59 | 288 | 0.0 | 1.0 | 0.00 | 0.01 | 0.01 | 93 | 1016.1 |
| 20260902032438 | 59 | 300 | 0.0 | 0.0 | 0.00 | 0.01 | 0.01 | 92 | 1016.1 |
| 20260902031933 | 59 | 300 | 0.0 | 0.0 | 0.00 | 0.01 | 0.01 | 92 | 1016.1 |
| 20260902031428 | 59 | 304 | 0.0 | 0.0 | 0.00 | 0.01 | 0.01 | 92 | 1016.2 |
| 20260902030925 | 59 | 303 | 0.0 | 0.0 | 0.00 | 0.01 | 0.01 | 92 | 1016.2 |
| 20260902030424 | 59 | 307 | 0.0 | 0.0 | 0.00 | 0.01 | 0.01 | 91 | 1016.0 |
| 20260902025923 | 59 | 280 | 0.0 | 0.0 | 0.00 | 0.01 | 0.01 | 91 | 1016.0 |
| 20260902025419 | 59 | 310 | 0.0 | 0.0 | 0.00 | 0.01 | 0.01 | 91 | 1016.0 |
| 20260902024914 | 59 | 320 | 0.0 | 1.0 | 0.00 | 0.01 | 0.01 | 91 | 1015.8 |
| 20260902024409 | 59 | 309 | 0.0 | 0.0 | 0.00 | 0.01 | 0.01 | 91 | 1015.8 |
| 20260902023904 | 60 | 304 | 1.0 | 1.0 | 0.00 | 0.01 | 0.01 | 90 | 1015.8 |
| 20260902023401 | 60 | 295 | 0.0 | 1.0 | 0.00 | 0.01 | 0.01 | 90 | 1015.9 |
| 20260902022859 | 60 | 272 | 0.0 | 1.0 | 0.00 | 0.01 | 0.01 | 90 | 1015.9 |
| 20260902022354 | 60 | 310 | 2.0 | 2.0 | 0.00 | 0.01 | 0.01 | 89 | 1016.2 |
| 20260902021850 | 60 | 310 | 2.0 | 2.0 | 0.00 | 0.01 | 0.01 | 89 | 1016.2 |
| 20260902021350 | 60 | 299 | 1.0 | 1.0 | 0.00 | 0.01 | 0.01 | 88 | 1015.9 |
| 20260902020845 | 60 | 322 | 0.0 | 0.0 | 0.00 | 0.01 | 0.01 | 87 | 1015.7 |
| 20260902020342 | 60 | 322 | 0.0 | 0.0 | 0.00 | 0.01 | 0.01 | 87 | 1015.7 |
| 20260902015703 | 60 | 267 | 2.0 | 2.0 | 0.00 | 0.01 | 0.01 | 87 | 1015.5 |
| 20260902015159 | 60 | 267 | 2.0 | 2.0 | 0.00 | 0.01 | 0.01 | 87 | 1015.5 |
| 20260902014655 | 61 | 11 | 0.0 | 1.0 | 0.00 | 0.01 | 0.01 | 86 | 1015.9 |
| 20260902014150 | 61 | 11 | 0.0 | 1.0 | 0.00 | 0.01 | 0.01 | 86 | 1015.9 |
| 20260902013649 | 61 | 11 | 0.0 | 1.0 | 0.00 | 0.01 | 0.01 | 86 | 1015.9 |
| 20260902012455 | 62 | 262 | 1.0 | 2.0 | 0.00 | 0.01 | 0.01 | 85 | 1015.8 |
| 20260902011951 | 62 | 262 | 1.0 | 2.0 | 0.00 | 0.01 | 0.01 | 85 | 1015.8 |
| 20260902011446 | 62 | 283 | 3.0 | 5.0 | 0.00 | 0.01 | 0.01 | 84 | 1016.1 |
| 20260902010630 | 63 | 304 | 2.0 | 3.0 | 0.00 | 0.01 | 0.01 | 81 | 1015.8 |
| 20260902010127 | 63 | 304 | 2.0 | 3.0 | 0.00 | 0.01 | 0.01 | 81 | 1015.8 |
| 20260902005624 | 63 | 304 | 1.0 | 2.0 | 0.00 | 0.01 | 0.01 | 81 | 1015.8 |
| 20260902005120 | 64 | 204 | 2.0 | 3.0 | 0.00 | 0.01 | 0.01 | 79 | 1015.8 |
| 20260902004620 | 64 | 268 | 5.0 | 6.0 | 0.00 | 0.01 | 0.01 | 79 | 1015.8 |
| 20260902004115 | 64 | 247 | 1.0 | 2.0 | 0.00 | 0.01 | 0.01 | 78 | 1015.9 |
| 20260902003610 | 64 | 247 | 1.0 | 2.0 | 0.00 | 0.01 | 0.01 | 78 | 1015.9 |
| 20260902003106 | 64 | 301 | 2.0 | 2.0 | 0.00 | 0.01 | 0.01 | 77 | 1015.8 |
| 20260902002601 | 65 | 319 | 1.0 | 1.0 | 0.00 | 0.01 | 0.01 | 76 | 1015.7 |
| 20260902002056 | 66 | 323 | 2.0 | 3.0 | 0.00 | 0.01 | 0.01 | 75 | 1015.7 |
| 20260902001551 | 65 | 279 | 1.0 | 2.0 | 0.00 | 0.01 | 0.01 | 74 | 1015.8 |
| 20260902001046 | 65 | 287 | 2.0 | 2.0 | 0.00 | 0.01 | 0.01 | 74 | 1015.7 |
| 20260902000540 | 64 | 252 | 1.0 | 2.0 | 0.00 | 0.01 | 0.01 | 75 | 1015.5 |
| 20260902000036 | 64 | 248 | 0.0 | 1.0 | 0.00 | 0.01 | 0.01 | 76 | 1015.7 |
| 20260901235529 | 64 | 261 | 5.0 | 6.0 | 0.00 | 0.01 | 0.01 | 74 | 1015.7 |
| 20260901235025 | 64 | 272 | 3.0 | 3.0 | 0.00 | 0.01 | 0.01 | 74 | 1015.7 |
| 20260901234524 | 64 | 247 | 4.0 | 6.0 | 0.00 | 0.01 | 0.01 | 72 | 1015.9 |
| 20260901234019 | 65 | 269 | 3.0 | 3.0 | 0.00 | 0.01 | 0.01 | 71 | 1015.4 |
| 20260901233514 | 65 | 249 | 3.0 | 3.0 | 0.00 | 0.01 | 0.01 | 70 | 1015.7 |
| 20260901233011 | 65 | 284 | 1.0 | 1.0 | 0.00 | 0.01 | 0.01 | 70 | 1015.8 |
| 20260901232511 | 65 | 284 | 1.0 | 1.0 | 0.00 | 0.01 | 0.01 | 70 | 1015.8 |
| 20260901231601 | 69 | 302 | 3.0 | 5.0 | 0.00 | 0.01 | 0.01 | 66 | 1015.7 |
| 20260901231056 | 69 | 302 | 3.0 | 5.0 | 0.00 | 0.01 | 0.01 | 66 | 1015.7 |
| 20260901230551 | 68 | 245 | 3.0 | 3.0 | 0.00 | 0.01 | 0.01 | 65 | 1015.7 |
| 20260901230046 | 68 | 245 | 3.0 | 3.0 | 0.00 | 0.01 | 0.01 | 65 | 1015.7 |
| 20260901225541 | 68 | 290 | 3.0 | 3.0 | 0.00 | 0.01 | 0.01 | 67 | 1015.5 |
| 20260901223209 | 66 | 289 | 2.0 | 3.0 | 0.00 | 0.01 | 0.01 | 70 | 1015.9 |
| 20260901222706 | 66 | 289 | 2.0 | 3.0 | 0.00 | 0.01 | 0.01 | 70 | 1015.9 |
| 20260901222202 | 67 | 311 | 3.0 | 3.0 | 0.00 | 0.01 | 0.01 | 70 | 1016.0 |
| 20260901221657 | 69 | 241 | 2.0 | 2.0 | 0.00 | 0.01 | 0.01 | 67 | 1016.0 |
| 20260901221153 | 68 | 291 | 3.0 | 6.0 | 0.00 | 0.01 | 0.01 | 68 | 1015.9 |
| 20260901220652 | 68 | 322 | 1.0 | 2.0 | 0.00 | 0.01 | 0.01 | 68 | 1016.1 |
| 20260901220151 | 67 | 275 | 2.0 | 3.0 | 0.00 | 0.01 | 0.01 | 69 | 1016.1 |
| 20260901215649 | 67 | 275 | 2.0 | 3.0 | 0.00 | 0.01 | 0.01 | 69 | 1016.1 |
| 20260901214327 | 69 | 289 | 4.0 | 7.0 | 0.00 | 0.01 | 0.01 | 64 | 1016.0 |
| 20260901213822 | 69 | 289 | 4.0 | 7.0 | 0.00 | 0.01 | 0.01 | 64 | 1016.0 |
| 20260901213322 | 69 | 289 | 4.0 | 7.0 | 0.00 | 0.01 | 0.01 | 64 | 1016.0 |
| 20260901212816 | 68 | 345 | 2.0 | 2.0 | 0.00 | 0.01 | 0.01 | 63 | 1015.8 |
| 20260901212312 | 68 | 291 | 4.0 | 6.0 | 0.00 | 0.01 | 0.01 | 64 | 1015.8 |
| 20260901211808 | 69 | 296 | 2.0 | 3.0 | 0.00 | 0.01 | 0.01 | 64 | 1015.9 |
| 20260901211304 | 70 | 319 | 1.0 | 1.0 | 0.00 | 0.01 | 0.01 | 61 | 1015.8 |
| 20260901210759 | 70 | 319 | 1.0 | 1.0 | 0.00 | 0.01 | 0.01 | 61 | 1015.8 |
| 20260901210255 | 70 | 289 | 3.0 | 5.0 | 0.00 | 0.01 | 0.01 | 62 | 1015.7 |
| 20260901205751 | 70 | 289 | 3.0 | 5.0 | 0.00 | 0.01 | 0.01 | 62 | 1015.7 |
| 20260901205250 | 70 | 236 | 4.0 | 5.0 | 0.00 | 0.01 | 0.01 | 61 | 1015.8 |
| 20260901204745 | 69 | 328 | 3.0 | 3.0 | 0.00 | 0.01 | 0.01 | 64 | 1015.7 |
| 20260901203927 | 70 | 268 | 3.0 | 3.0 | 0.00 | 0.01 | 0.01 | 61 | 1015.7 |
| 20260901203423 | 70 | 268 | 3.0 | 3.0 | 0.00 | 0.01 | 0.01 | 61 | 1015.7 |
| 20260901202918 | 69 | 11 | 0.0 | 1.0 | 0.00 | 0.01 | 0.01 | 63 | 1015.7 |
| 20260901202414 | 70 | 212 | 4.0 | 5.0 | 0.00 | 0.01 | 0.01 | 65 | 1015.9 |
| 20260901201909 | 69 | 281 | 1.0 | 2.0 | 0.00 | 0.01 | 0.01 | 65 | 1015.9 |
| 20260901201408 | 69 | 281 | 1.0 | 2.0 | 0.00 | 0.01 | 0.01 | 65 | 1015.9 |
| 20260901200902 | 69 | 244 | 3.0 | 3.0 | 0.00 | 0.01 | 0.01 | 65 | 1016.2 |
| 20260901200358 | 69 | 328 | 1.0 | 1.0 | 0.00 | 0.01 | 0.01 | 69 | 1016.1 |
| 20260901195856 | 69 | 328 | 1.0 | 1.0 | 0.00 | 0.01 | 0.01 | 69 | 1016.1 |
| 20260901195349 | 67 | 277 | 1.0 | 1.0 | 0.00 | 0.01 | 0.01 | 70 | 1016.2 |
| 20260901194844 | 67 | 277 | 1.0 | 1.0 | 0.00 | 0.01 | 0.01 | 70 | 1016.2 |
| 20260901194338 | 68 | 267 | 3.0 | 3.0 | 0.00 | 0.01 | 0.01 | 67 | 1016.3 |
| 20260901193836 | 70 | 308 | 1.0 | 2.0 | 0.00 | 0.01 | 0.01 | 65 | 1016.0 |
| 20260901193334 | 70 | 308 | 1.0 | 2.0 | 0.00 | 0.01 | 0.01 | 65 | 1016.0 |
| 20260901192829 | 66 | 248 | 1.0 | 1.0 | 0.00 | 0.01 | 0.01 | 71 | 1016.2 |
| 20260901192324 | 66 | 248 | 1.0 | 1.0 | 0.00 | 0.01 | 0.01 | 71 | 1016.2 |
| 20260901191821 | 65 | 307 | 0.0 | 0.0 | 0.00 | 0.01 | 0.01 | 73 | 1016.1 |
| 20260901191316 | 68 | 193 | 3.0 | 6.0 | 0.00 | 0.01 | 0.01 | 70 | 1016.1 |
| 20260901190812 | 68 | 293 | 1.0 | 1.0 | 0.00 | 0.01 | 0.01 | 67 | 1016.3 |
| 20260901190311 | 68 | 325 | 0.0 | 1.0 | 0.00 | 0.01 | 0.01 | 70 | 1016.2 |
| 20260901185809 | 67 | 204 | 2.0 | 2.0 | 0.00 | 0.01 | 0.01 | 71 | 1016.4 |
| 20260901184101 | 68 | 303 | 3.0 | 3.0 | 0.00 | 0.01 | 0.01 | 72 | 1016.3 |
| 20260901183556 | 68 | 303 | 3.0 | 3.0 | 0.00 | 0.01 | 0.01 | 72 | 1016.3 |
| 20260901183051 | 66 | 277 | 1.0 | 1.0 | 0.00 | 0.01 | 0.01 | 76 | 1016.2 |
| 20260901182547 | 64 | 317 | 1.0 | 1.0 | 0.00 | 0.01 | 0.01 | 78 | 1016.3 |
| 20260901182042 | 65 | 289 | 3.0 | 3.0 | 0.00 | 0.01 | 0.01 | 77 | 1016.2 |
| 20260901181541 | 67 | 273 | 2.0 | 2.0 | 0.00 | 0.01 | 0.01 | 73 | 1016.2 |
| 20260901181040 | 67 | 295 | 2.0 | 2.0 | 0.00 | 0.01 | 0.01 | 75 | 1016.1 |
| 20260901180539 | 67 | 339 | 1.0 | 2.0 | 0.00 | 0.01 | 0.01 | 75 | 1015.9 |
| 20260901175813 | 66 | 319 | 0.0 | 1.0 | 0.00 | 0.01 | 0.01 | 79 | 1016.0 |
| 20260901175308 | 66 | 319 | 0.0 | 1.0 | 0.00 | 0.01 | 0.01 | 79 | 1016.0 |
| 20260901174803 | 64 | 216 | 3.0 | 3.0 | 0.00 | 0.01 | 0.01 | 82 | 1016.0 |
| 20260901174259 | 64 | 216 | 3.0 | 3.0 | 0.00 | 0.01 | 0.01 | 82 | 1016.0 |
| 20260901173754 | 63 | 324 | 0.0 | 0.0 | 0.00 | 0.01 | 0.01 | 85 | 1015.9 |
| 20260901173254 | 63 | 330 | 1.0 | 3.0 | 0.00 | 0.01 | 0.01 | 85 | 1015.9 |
| 20260901172751 | 63 | 249 | 1.0 | 2.0 | 0.00 | 0.01 | 0.01 | 85 | 1015.8 |
| 20260901172250 | 62 | 265 | 1.0 | 1.0 | 0.00 | 0.01 | 0.01 | 85 | 1015.5 |
| 20260901171748 | 62 | 296 | 3.0 | 6.0 | 0.00 | 0.01 | 0.01 | 86 | 1015.5 |
| 20260901171248 | 62 | 314 | 0.0 | 0.0 | 0.00 | 0.01 | 0.01 | 87 | 1015.5 |
| 20260901170746 | 62 | 314 | 0.0 | 0.0 | 0.00 | 0.01 | 0.01 | 87 | 1015.5 |
| 20260901170241 | 63 | 263 | 1.0 | 1.0 | 0.00 | 0.01 | 0.01 | 87 | 1015.4 |
| 20260901165555 | 63 | 238 | 1.0 | 2.0 | 0.00 | 0.01 | 0.01 | 86 | 1015.4 |
| 20260901165051 | 63 | 238 | 1.0 | 2.0 | 0.00 | 0.01 | 0.01 | 86 | 1015.4 |
| 20260901164546 | 63 | 298 | 0.0 | 0.0 | 0.00 | 0.01 | 0.01 | 87 | 1015.4 |
| 20260901164041 | 62 | 315 | 0.0 | 0.0 | 0.00 | 0.01 | 0.01 | 89 | 1015.5 |
| 20260901163537 | 62 | 315 | 0.0 | 0.0 | 0.00 | 0.01 | 0.01 | 89 | 1015.5 |
| 20260901163036 | 62 | 296 | 2.0 | 2.0 | 0.00 | 0.01 | 0.01 | 89 | 1015.4 |
| 20260901162531 | 62 | 234 | 3.0 | 3.0 | 0.00 | 0.01 | 0.01 | 91 | 1015.4 |
| 20260901162031 | 60 | 293 | 0.0 | 0.0 | 0.00 | 0.01 | 0.01 | 93 | 1015.3 |
| 20260901161530 | 60 | 276 | 2.0 | 3.0 | 0.00 | 0.01 | 0.01 | 94 | 1015.4 |
| 20260901161029 | 60 | 282 | 0.0 | 0.0 | 0.00 | 0.01 | 0.01 | 96 | 1015.4 |
| 20260901160526 | 59 | 302 | 0.0 | 0.0 | 0.00 | 0.01 | 0.01 | 97 | 1015.3 |
| 20260901160020 | 59 | 262 | 1.0 | 1.0 | 0.00 | 0.01 | 0.01 | 97 | 1015.2 |
| 20260901155514 | 59 | 300 | 0.0 | 1.0 | 0.00 | 0.01 | 0.01 | 98 | 1015.3 |
| 20260901155010 | 58 | 300 | 0.0 | 0.0 | 0.00 | 0.01 | 0.01 | 98 | 1015.4 |
| 20260901154510 | 58 | 300 | 0.0 | 0.0 | 0.00 | 0.01 | 0.01 | 98 | 1015.4 |
| 20260901154009 | 58 | 300 | 0.0 | 0.0 | 0.00 | 0.01 | 0.01 | 98 | 1015.4 |
| 20260901153332 | 57 | 300 | 0.0 | 1.0 | 0.00 | 0.00 | 0.00 | 98 | 1015.1 |
| 20260901152831 | 57 | 300 | 0.0 | 1.0 | 0.00 | 0.00 | 0.00 | 98 | 1015.1 |
| 20260901152331 | 57 | 322 | 0.0 | 0.0 | 0.00 | 0.00 | 0.00 | 98 | 1015.0 |
| 20260901151826 | 57 | 322 | 0.0 | 0.0 | 0.00 | 0.00 | 0.00 | 98 | 1015.0 |
| 20260901151326 | 57 | 322 | 0.0 | 0.0 | 0.00 | 0.00 | 0.00 | 98 | 1015.0 |
| 20260901150820 | 57 | 317 | 0.0 | 0.0 | 0.00 | 0.00 | 0.00 | 99 | 1014.9 |
| 20260901150318 | 57 | 317 | 0.0 | 0.0 | 0.00 | 0.00 | 0.00 | 99 | 1014.9 |
| 20260901145815 | 57 | 299 | 0.0 | 0.0 | 0.00 | 0.00 | 0.00 | 99 | 1014.7 |
| 20260901145310 | 57 | 299 | 0.0 | 0.0 | 0.00 | 0.00 | 0.00 | 99 | 1014.7 |
| 20260901144805 | 57 | 299 | 0.0 | 0.0 | 0.00 | 0.00 | 0.00 | 99 | 1014.6 |
| 20260901144300 | 57 | 281 | 1.0 | 1.0 | 0.00 | 0.00 | 0.00 | 99 | 1014.4 |
| 20260901143755 | 57 | 293 | 1.0 | 1.0 | 0.00 | 0.00 | 0.00 | 99 | 1014.5 |
| 20260901143210 | 56 | 299 | 0.0 | 1.0 | 0.00 | 0.00 | 0.00 | 99 | 1014.3 |
| 20260901142707 | 56 | 299 | 0.0 | 1.0 | 0.00 | 0.00 | 0.00 | 99 | 1014.3 |
| 20260901142206 | 56 | 299 | 0.0 | 0.0 | 0.00 | 0.00 | 0.00 | 99 | 1014.3 |
| 20260901141701 | 56 | 301 | 0.0 | 0.0 | 0.00 | 0.00 | 0.00 | 99 | 1014.1 |
| 20260901141201 | 56 | 273 | 1.0 | 1.0 | 0.00 | 0.00 | 0.00 | 99 | 1014.0 |
| 20260901140659 | 56 | 286 | 0.0 | 0.0 | 0.00 | 0.00 | 0.00 | 99 | 1014.0 |
| 20260901140158 | 56 | 307 | 0.0 | 0.0 | 0.00 | 0.00 | 0.00 | 99 | 1014.3 |
| 20260901135653 | 56 | 293 | 0.0 | 1.0 | 0.00 | 0.00 | 0.00 | 99 | 1014.0 |
| 20260901134854 | 56 | 315 | 0.0 | 0.0 | 0.00 | 0.00 | 0.00 | 99 | 1013.7 |
| 20260901134348 | 56 | 315 | 0.0 | 0.0 | 0.00 | 0.00 | 0.00 | 99 | 1013.7 |
| 20260901133843 | 56 | 296 | 0.0 | 0.0 | 0.00 | 0.00 | 0.00 | 99 | 1013.6 |
| 20260901133342 | 56 | 296 | 0.0 | 0.0 | 0.00 | 0.00 | 0.00 | 99 | 1013.6 |
| 20260901132840 | 56 | 298 | 0.0 | 0.0 | 0.00 | 0.00 | 0.00 | 99 | 1013.5 |
| 20260901132336 | 56 | 287 | 1.0 | 1.0 | 0.00 | 0.00 | 0.00 | 99 | 1013.5 |
| 20260901131836 | 55 | 278 | 0.0 | 0.0 | 0.00 | 0.00 | 0.00 | 99 | 1013.4 |
| 20260901131335 | 55 | 293 | 0.0 | 0.0 | 0.00 | 0.00 | 0.00 | 99 | 1013.5 |
| 20260901130830 | 55 | 295 | 0.0 | 0.0 | 0.00 | 0.00 | 0.00 | 99 | 1013.5 |
| 20260901130325 | 55 | 285 | 0.0 | 0.0 | 0.00 | 0.00 | 0.00 | 99 | 1013.3 |
| 20260901125823 | 55 | 285 | 0.0 | 0.0 | 0.00 | 0.00 | 0.00 | 99 | 1013.3 |
| 20260901125322 | 55 | 285 | 0.0 | 0.0 | 0.00 | 0.00 | 0.00 | 99 | 1013.6 |
| 20260901124817 | 55 | 286 | 0.0 | 0.0 | 0.00 | 0.00 | 0.00 | 99 | 1013.5 |
| 20260901124313 | 55 | 286 | 0.0 | 0.0 | 0.00 | 0.00 | 0.00 | 99 | 1013.4 |
| 20260901123812 | 55 | 286 | 0.0 | 0.0 | 0.00 | 0.00 | 0.00 | 99 | 1013.3 |
| 20260901123307 | 55 | 286 | 0.0 | 0.0 | 0.00 | 0.00 | 0.00 | 99 | 1013.3 |
| 20260901122805 | 54 | 286 | 0.0 | 0.0 | 0.00 | 0.00 | 0.00 | 99 | 1013.2 |
| 20260901122301 | 54 | 286 | 0.0 | 0.0 | 0.00 | 0.00 | 0.00 | 99 | 1013.1 |
| 20260901121759 | 54 | 286 | 0.0 | 0.0 | 0.00 | 0.00 | 0.00 | 99 | 1013.3 |
| 20260901121255 | 54 | 286 | 0.0 | 0.0 | 0.00 | 0.00 | 0.00 | 99 | 1013.0 |
| 20260901120754 | 54 | 286 | 0.0 | 0.0 | 0.00 | 0.00 | 0.00 | 99 | 1013.3 |
| 20260901115959 | 54 | 286 | 0.0 | 0.0 | 0.00 | 0.00 | 0.00 | 99 | 1013.2 |
| 20260901115454 | 54 | 286 | 0.0 | 0.0 | 0.00 | 0.00 | 0.00 | 99 | 1013.2 |
| 20260901114952 | 54 | 286 | 0.0 | 0.0 | 0.00 | 0.00 | 0.00 | 99 | 1013.3 |
| 20260901114447 | 53 | 286 | 0.0 | 0.0 | 0.00 | 0.00 | 0.00 | 99 | 1013.3 |
| 20260901113945 | 53 | 286 | 0.0 | 0.0 | 0.00 | 0.00 | 0.00 | 99 | 1013.3 |
| 20260901113444 | 53 | 286 | 0.0 | 0.0 | 0.00 | 0.00 | 0.00 | 99 | 1013.1 |
| 20260901112940 | 53 | 286 | 0.0 | 0.0 | 0.00 | 0.00 | 0.00 | 99 | 1013.2 |
| 20260901112435 | 53 | 286 | 0.0 | 0.0 | 0.00 | 0.00 | 0.00 | 99 | 1013.4 |
| 20260901111930 | 53 | 286 | 0.0 | 0.0 | 0.00 | 0.00 | 0.00 | 99 | 1013.4 |
| 20260901111428 | 54 | 286 | 0.0 | 0.0 | 0.00 | 0.00 | 0.00 | 99 | 1013.2 |
| 20260901110927 | 54 | 288 | 0.0 | 0.0 | 0.00 | 0.00 | 0.00 | 99 | 1013.5 |
| 20260901110423 | 54 | 288 | 0.0 | 0.0 | 0.00 | 0.00 | 0.00 | 99 | 1013.5 |
| 20260901105919 | 54 | 286 | 0.0 | 0.0 | 0.00 | 0.00 | 0.00 | 99 | 1013.5 |
| 20260901105414 | 53 | 292 | 0.0 | 0.0 | 0.00 | 0.00 | 0.00 | 99 | 1013.6 |
| 20260901104910 | 54 | 292 | 0.0 | 0.0 | 0.00 | 0.00 | 0.00 | 99 | 1013.7 |
| 20260901104405 | 54 | 292 | 0.0 | 0.0 | 0.00 | 0.00 | 0.00 | 99 | 1013.7 |
| 20260901103901 | 53 | 292 | 0.0 | 0.0 | 0.00 | 0.00 | 0.00 | 99 | 1013.6 |
| 20260901103400 | 53 | 292 | 0.0 | 0.0 | 0.00 | 0.00 | 0.00 | 99 | 1013.5 |
| 20260901102855 | 53 | 292 | 0.0 | 0.0 | 0.00 | 0.00 | 0.00 | 99 | 1013.5 |
| 20260901102355 | 53 | 292 | 0.0 | 0.0 | 0.00 | 0.00 | 0.00 | 99 | 1013.4 |
| 20260901101850 | 52 | 296 | 0.0 | 0.0 | 0.00 | 0.00 | 0.00 | 99 | 1013.4 |
| 20260901101345 | 52 | 296 | 0.0 | 0.0 | 0.00 | 0.00 | 0.00 | 99 | 1013.4 |
| 20260901100845 | 51 | 290 | 0.0 | 0.0 | 0.00 | 0.00 | 0.00 | 99 | 1013.5 |
| 20260901100339 | 50 | 277 | 0.0 | 0.0 | 0.00 | 0.00 | 0.00 | 99 | 1013.5 |
| 20260901095838 | 50 | 287 | 0.0 | 0.0 | 0.00 | 0.00 | 0.00 | 99 | 1013.5 |
| 20260901094743 | 49 | 282 | 0.0 | 0.0 | 0.00 | 0.00 | 0.00 | 99 | 1013.4 |
| 20260901094238 | 49 | 282 | 0.0 | 0.0 | 0.00 | 0.00 | 0.00 | 99 | 1013.4 |
| 20260901093733 | 49 | 284 | 0.0 | 0.0 | 0.00 | 0.00 | 0.00 | 99 | 1013.4 |
| 20260901093231 | 49 | 287 | 0.0 | 0.0 | 0.00 | 0.00 | 0.00 | 99 | 1013.1 |